Location: Ballingbuur
(53.0000°N, 5.7667°E)
Time: 06:00:58
(UTC+00:00)

Gbstr 26 Del rocket - Pass Details

Date: 29 November 2020
Orbit: 493 x 1263 km, 51.8° (Epoch: 23 January)

Event Time Altitude Azimuth Distance (km) Brightness Sun altitude
Exits shadow 04:43:24 28° 175° (S) 962 4.1 -23.3°
Drops below altitude 10° 04:45:50 10° 143° (SE) 1,730 5.9 -22.9°
Sets 04:48:14 0° 133° (SE) 2,672 7.1 -22.6°
